Погода в Туапсе

Россия / Краснодарский край     44°05′44″N   39°04′24″E
В апреле 2022 года жителям России запретили посещать сайт meteo.paraplan.net по решению Генеральной прокуратуры. Аудитория сайта уменьшилась в 10 раз. Владельцы сайта не видят смысла в поддержке погодного сервера в таких условиях. Сайт будет закрыт в октябре.
темп.,
°C
ветер,
м/с
пор.,
м/с
влажн.,
%
обл.,
%
осадки,
мм/ч
давл.,
гПа
погр.,
м
25 сентября, вс
вс2500:00+18зюз910625 2.8 10201432
03:00+17зсз776397 5.9 10211248
06:00+17зсз34581 1.4 10211235
09:00+17юз235760 2.4 10231014
12:00+18юз445967 1.2 10231140
15:00+18ююз45615 1.6 10231170
18:00+19ююз55590 0.2 10221381
21:00+19ю555617 0.2 10221381
26 сентября, пн
пн2600:00+19ююв56610 0.0 10211060
03:00+18юв44665 0.0 1020694
06:00+18в22594 0.0 1020453
09:00+18св32555 0.0 1019312
12:00+19зсз10485 0.0 1019205
15:00+20сз114274 0.0 1017213
18:00+21с224185 0.0 1016184
21:00+20св224596 0.0 1015158
27 сентября, вт
вт2700:00+20всв22465 0.0 1014175
03:00+21вюв2340100 0.0 1013273
06:00+21вюв3440100 0.0 1012325
09:00+21юв3645100 0.0 1011314
12:00+22юв1157100 0.0 1010223
15:00+22вюв124699 0.0 1008167
18:00+23всв1149100 0.0 100786
21:00+23св2254100 0.0 100742
28 сентября, ср
ср2800:00+23всв3347100 0.0 100641
03:00+23всв1153100 0.0 100515
06:00+23с2255100 0.0 100654
09:00+23зсз2354100 0.0 1006123
12:00+22с4561100 0.0 1007252
15:00+23сз3466100 0.0 1007180
18:00+22сз887396 0.0 1010845
21:00+21с2371100 0.0 1010213
29 сентября, чт
чт2900:00+22ссз3362100 0.0 1011269
03:00+21ссз3365100 0.0 1011250
06:00+21ссв226481 0.1 1011211
09:00+22с33563 0.1 1012186
12:00+22зсз44650 0.0 1012189
15:00+23сз66725 0.0 1012199
18:00+22сз67724 0.0 1012196
21:00+22ссз56683 0.0 1013175